Hourly Data Report for March 01, 2015

All times are specified in Local Standard Time (LST). Add 1 hour to adjust for Daylight Saving Time where and when it is observed.

MIRAMICHI RCS
NEW BRUNSWICK

47°00'34.000" N
65°27'54.000" W
33.00 m
8100989
71744
ACQ

Download Data

Hourly Data (March 2015)
Hourly Data Report for March 1, 2015
TIME Temp Definition
°C
Dew Point Definition
°C
Rel Hum Definition
%
Wind Dir Definition
10's deg

Wind Spd Definition
km/h
Visibility Definition
km
Stn Press Definition
kPa
Hmdx Definition


Wind Chill Definition


Weather Definition


00:00 -11.2 -18.1 57 26 12   102.97   -17 LegendNANA
01:00 -11.8 -18.3 58 25 13   103.02   -18 LegendNANA
02:00 -17.7 -22.0 69 16 4   103.07   -21 LegendNANA
03:00 -19.4 -23.2 72 26 3   103.12   -22 LegendNANA
04:00 -21.1 -24.1 77 27 5   103.10   -26 LegendNANA
05:00 -22.7 -25.2 80 27 6   103.14   -28 LegendNANA
06:00 -22.3 -24.0 86 27 5   103.16   -27 LegendNANA
07:00 -18.4 -20.6 82 27 8   103.17   -24 LegendNANA
08:00 -16.8 -20.3 74 27 9   103.16   -23 LegendNANA
09:00 -12.8 -18.3 63 26 10   103.14   -19 LegendNANA
10:00 -10.2 -17.3 56 23 10   103.10   -15 LegendNANA
11:00 -5.9 -15.9 45 26 10   103.04   -10 LegendNANA
12:00 -3.3 -15.2 39 23 9   102.98   -7 LegendNANA
13:00 -2.7 -14.8 39 24 15   102.80   -8 LegendNANA
14:00 -2.6 -14.5 39 21 19   102.68   -8 LegendNANA
15:00 -2.2 -14.3 39 23 18   102.57   -8 LegendNANA
16:00 -2.3 -13.9 40 21 19   102.41   -8 LegendNANA
17:00 -3.0 -13.5 44 18 22   102.33   -9 LegendNANA
18:00 -4.2 -13.6 48 22 24   102.28   -11 LegendNANA
19:00 -5.5 -13.4 54 20 15   102.25   -11 LegendNANA
20:00 -6.4 -13.6 57 19 13   102.17   -12 LegendNANA
21:00 -7.1 -13.9 58 20 17   102.03   -14 LegendNANA
22:00 -7.6 -13.3 63 19 11   101.90   -13 LegendNANA
23:00 -7.7 -12.1 71 20 7   101.74   -11 LegendNANA

Notes on Data Quality.

Legend

  • E = Estimated
  • M = Missing
  • NA = Not Available
Date modified: